Time,TemperatureF,DewpointF,PressureIn,WindDirection,WindDirectionDegrees,WindSpeedMPH,WindSpeedGustMPH,Humidity,HourlyPrecipIn,Conditions,Clouds,dailyrainin,SoftwareType,DateUTC
2013-10-11 00:01:00,60.3,57.4,30.04,NW,315,4.0,9.0,90,0.00,,,0.00,meteohub,2013-10-11 04:01:00,
2013-10-11 00:02:00,60.3,57.4,30.04,NW,315,4.0,9.0,90,0.00,,,0.00,meteohub,2013-10-11 04:02:00,
2013-10-11 00:07:00,60.3,57.4,30.04,NW,315,4.0,9.0,90,0.00,,,0.00,meteohub,2013-10-11 04:07:00,
2013-10-11 00:12:00,60.1,57.2,30.04,NW,315,5.0,9.0,90,0.00,,,0.00,meteohub,2013-10-11 04:12:00,
2013-10-11 00:17:00,59.9,57.0,30.04,NW,315,4.0,6.0,90,0.00,,,0.00,meteohub,2013-10-11 04:17:00,
2013-10-11 00:22:00,60.1,57.2,30.04,NE,45,4.0,9.0,90,0.00,,,0.00,meteohub,2013-10-11 04:22:00,
2013-10-11 00:27:00,60.1,57.2,30.04,NW,315,6.0,9.0,90,0.00,,,0.00,meteohub,2013-10-11 04:27:00,
2013-10-11 00:32:00,60.3,57.0,30.04,NW,315,7.0,11.0,89,0.00,,,0.00,meteohub,2013-10-11 04:32:00,
2013-10-11 00:37:00,60.3,57.0,30.04,NW,315,3.0,11.0,89,0.00,,,0.00,meteohub,2013-10-11 04:37:00,
2013-10-11 00:42:00,60.1,56.8,30.04,NW,315,4.0,11.0,89,0.00,,,0.00,meteohub,2013-10-11 04:42:00,
2013-10-11 00:47:00,60.1,56.8,30.04,NW,315,4.0,7.0,89,0.00,,,0.00,meteohub,2013-10-11 04:47:00,
2013-10-11 00:52:00,60.1,56.8,30.04,North,0,3.0,4.0,89,0.00,,,0.00,meteohub,2013-10-11 04:52:00,
2013-10-11 00:57:00,60.1,56.8,30.04,WNW,293,4.0,7.0,89,0.00,,,0.00,meteohub,2013-10-11 04:57:00,
2013-10-11 01:02:00,60.1,56.8,30.03,West,270,4.0,7.0,89,0.00,,,0.00,meteohub,2013-10-11 05:02:00,
2013-10-11 01:07:00,60.1,56.8,30.04,North,0,8.0,8.0,89,0.00,,,0.00,meteohub,2013-10-11 05:07:00,
2013-10-11 01:12:00,60.1,56.8,30.03,North,0,3.0,9.0,89,0.00,,,0.00,meteohub,2013-10-11 05:12:00,
2013-10-11 01:17:00,59.9,56.7,30.04,NE,45,4.0,9.0,89,0.00,,,0.00,meteohub,2013-10-11 05:17:00,
2013-10-11 01:22:00,59.5,56.3,30.04,West,270,4.0,8.0,89,0.00,,,0.00,meteohub,2013-10-11 05:22:00,
2013-10-11 01:27:00,59.4,56.1,30.03,NW,315,1.0,6.0,89,0.00,,,0.00,meteohub,2013-10-11 05:27:00,
2013-10-11 01:32:00,58.8,55.9,30.03,NW,315,2.0,6.0,90,0.00,,,0.00,meteohub,2013-10-11 05:32:00,
2013-10-11 01:37:00,58.6,55.9,30.03,NNW,338,2.0,5.0,91,0.00,,,0.00,meteohub,2013-10-11 05:37:00,
2013-10-11 01:42:00,58.5,55.8,30.04,NW,315,5.0,5.0,91,0.00,,,0.00,meteohub,2013-10-11 05:42:00,
2013-10-11 01:47:00,58.3,55.9,30.03,NW,315,6.0,6.0,92,0.00,,,0.00,meteohub,2013-10-11 05:47:00,
2013-10-11 01:52:00,58.5,56.5,30.04,NW,315,7.0,8.0,93,0.00,,,0.00,meteohub,2013-10-11 05:52:00,
2013-10-11 01:57:00,58.6,56.7,30.04,WNW,293,5.0,9.0,93,0.00,,,0.00,meteohub,2013-10-11 05:57:00,
2013-10-11 02:02:00,58.6,56.7,30.04,NW,315,4.0,9.0,93,0.00,,,0.00,meteohub,2013-10-11 06:02:00,
2013-10-11 02:07:00,58.6,56.3,30.03,NW,315,4.0,9.0,92,0.00,,,0.00,meteohub,2013-10-11 06:07:00,
2013-10-11 02:12:00,58.6,56.3,30.03,NW,315,3.0,6.0,92,0.00,,,0.00,meteohub,2013-10-11 06:12:00,
2013-10-11 02:17:00,58.6,56.3,30.03,NW,315,4.0,5.0,92,0.00,,,0.00,meteohub,2013-10-11 06:17:00,
2013-10-11 02:22:00,58.6,56.3,30.03,NW,315,5.0,5.0,92,0.00,,,0.00,meteohub,2013-10-11 06:22:00,
2013-10-11 02:27:00,58.6,56.3,30.03,West,270,3.0,6.0,92,0.00,,,0.00,meteohub,2013-10-11 06:27:00,
2013-10-11 02:32:00,58.8,56.5,30.03,NW,315,6.0,6.0,92,0.00,,,0.00,meteohub,2013-10-11 06:32:00,
2013-10-11 02:37:00,58.8,56.5,30.02,NW,315,5.0,6.0,92,0.00,,,0.00,meteohub,2013-10-11 06:37:00,
2013-10-11 02:42:00,58.8,56.5,30.02,NW,315,2.0,6.0,92,0.00,,,0.00,meteohub,2013-10-11 06:42:00,
2013-10-11 02:47:00,58.8,56.5,30.02,NW,315,4.0,6.0,92,0.00,,,0.00,meteohub,2013-10-11 06:47:00,
2013-10-11 02:52:00,58.6,56.3,30.03,North,0,3.0,5.0,92,0.00,,,0.00,meteohub,2013-10-11 06:52:00,
2013-10-11 02:57:00,58.6,56.3,30.02,West,270,2.0,4.0,92,0.00,,,0.00,meteohub,2013-10-11 06:57:00,
2013-10-11 03:02:00,58.6,56.3,30.02,SE,135,3.0,4.0,92,0.00,,,0.00,meteohub,2013-10-11 07:02:00,
2013-10-11 03:07:00,58.8,56.5,30.02,NW,315,3.0,4.0,92,0.00,,,0.00,meteohub,2013-10-11 07:07:00,
2013-10-11 03:12:00,58.8,56.1,30.02,West,270,4.0,4.0,91,0.00,,,0.00,meteohub,2013-10-11 07:12:00,
2013-10-11 03:17:00,58.8,56.1,30.02,West,270,2.0,4.0,91,0.00,,,0.00,meteohub,2013-10-11 07:17:00,
2013-10-11 03:22:00,58.8,56.1,30.02,NW,315,3.0,8.0,91,0.00,,,0.00,meteohub,2013-10-11 07:22:00,
2013-10-11 03:27:00,58.6,55.9,30.02,South,180,4.0,8.0,91,0.00,,,0.00,meteohub,2013-10-11 07:27:00,
2013-10-11 03:32:00,58.6,55.9,30.01,South,180,4.0,8.0,91,0.00,,,0.00,meteohub,2013-10-11 07:32:00,
2013-10-11 03:37:00,58.6,55.9,30.01,NW,315,4.0,6.0,91,0.00,,,0.00,meteohub,2013-10-11 07:37:00,
2013-10-11 03:42:00,58.6,55.9,30.01,SE,135,8.0,8.0,91,0.00,,,0.00,meteohub,2013-10-11 07:42:00,
2013-10-11 03:47:00,58.5,56.1,30.01,SE,135,3.0,8.0,92,0.00,,,0.00,meteohub,2013-10-11 07:47:00,
2013-10-11 03:52:00,58.5,56.1,30.01,SE,135,5.0,8.0,92,0.00,,,0.00,meteohub,2013-10-11 07:52:00,
2013-10-11 03:57:00,58.5,56.1,30.02,West,270,3.0,8.0,92,0.00,,,0.00,meteohub,2013-10-11 07:57:00,
2013-10-11 04:02:00,58.5,56.1,30.02,North,0,4.0,8.0,92,0.00,,,0.00,meteohub,2013-10-11 08:02:00,
2013-10-11 04:07:00,58.5,56.1,30.01,North,0,4.0,8.0,92,0.00,,,0.00,meteohub,2013-10-11 08:07:00,
2013-10-11 04:12:00,58.5,56.1,30.01,NW,315,3.0,6.0,92,0.00,,,0.00,meteohub,2013-10-11 08:12:00,
2013-10-11 04:17:00,58.3,55.9,30.01,South,180,6.0,6.0,92,0.00,,,0.00,meteohub,2013-10-11 08:17:00,
2013-10-11 04:22:00,58.3,55.9,30.01,West,270,2.0,7.0,92,0.00,,,0.00,meteohub,2013-10-11 08:22:00,
2013-10-11 04:27:00,58.3,55.9,30.02,SE,135,3.0,9.0,92,0.00,,,0.00,meteohub,2013-10-11 08:27:00,
2013-10-11 04:32:00,58.3,55.9,30.02,West,270,7.0,9.0,92,0.00,,,0.00,meteohub,2013-10-11 08:32:00,
2013-10-11 04:37:00,58.3,55.9,30.01,East,90,7.0,8.0,92,0.00,,,0.00,meteohub,2013-10-11 08:37:00,
2013-10-11 04:42:00,58.1,55.8,30.01,East,90,4.0,8.0,92,0.00,,,0.00,meteohub,2013-10-11 08:42:00,
2013-10-11 04:47:00,58.1,55.8,30.01,SE,135,6.0,8.0,92,0.00,,,0.00,meteohub,2013-10-11 08:47:00,
2013-10-11 04:52:00,57.9,55.9,30.02,NW,315,8.0,8.0,93,0.00,,,0.00,meteohub,2013-10-11 08:52:00,
2013-10-11 04:57:00,57.9,55.6,30.01,North,0,8.0,9.0,92,0.00,,,0.00,meteohub,2013-10-11 08:57:00,
2013-10-11 05:02:00,57.9,55.6,30.02,SW,225,5.0,9.0,92,0.00,,,0.00,meteohub,2013-10-11 09:02:00,
2013-10-11 05:07:00,57.9,55.6,30.01,NE,45,2.0,8.0,92,0.00,,,0.00,meteohub,2013-10-11 09:07:00,
2013-10-11 05:12:00,57.9,55.6,30.01,SW,225,4.0,8.0,92,0.00,,,0.00,meteohub,2013-10-11 09:12:00,
2013-10-11 05:17:00,57.7,55.4,30.01,NW,315,10.0,10.0,92,0.00,,,0.00,meteohub,2013-10-11 09:17:00,
2013-10-11 05:22:00,57.7,55.4,30.02,SE,135,4.0,10.0,92,0.00,,,0.00,meteohub,2013-10-11 09:22:00,
2013-10-11 05:27:00,57.6,55.2,30.02,South,180,4.0,10.0,92,0.00,,,0.00,meteohub,2013-10-11 09:27:00,
2013-10-11 05:32:00,57.6,55.2,30.02,NW,315,5.0,10.0,92,0.00,,,0.00,meteohub,2013-10-11 09:32:00,
2013-10-11 05:37:00,57.7,55.4,30.01,North,0,5.0,9.0,92,0.00,,,0.00,meteohub,2013-10-11 09:37:00,
2013-10-11 05:42:00,57.7,55.4,30.02,South,180,4.0,12.0,92,0.00,,,0.00,meteohub,2013-10-11 09:42:00,
2013-10-11 05:47:00,57.9,55.2,30.01,SE,135,6.0,12.0,91,0.00,,,0.00,meteohub,2013-10-11 09:47:00,
2013-10-11 05:52:00,57.9,55.2,30.02,South,180,6.0,12.0,91,0.00,,,0.00,meteohub,2013-10-11 09:52:00,
2013-10-11 05:57:00,57.9,55.2,30.02,SW,225,4.0,8.0,91,0.00,,,0.00,meteohub,2013-10-11 09:57:00,
2013-10-11 06:02:00,57.9,55.2,30.02,South,180,4.0,8.0,91,0.00,,,0.00,meteohub,2013-10-11 10:02:00,
2013-10-11 06:07:00,57.9,55.2,30.02,South,180,4.0,8.0,91,0.00,,,0.00,meteohub,2013-10-11 10:07:00,
2013-10-11 06:12:00,57.9,55.2,30.02,South,180,8.0,8.0,91,0.00,,,0.00,meteohub,2013-10-11 10:12:00,
2013-10-11 06:17:00,57.9,55.2,30.02,North,0,4.0,9.0,91,0.00,,,0.00,meteohub,2013-10-11 10:17:00,
2013-10-11 06:22:00,57.9,55.2,30.02,SE,135,6.0,9.0,91,0.00,,,0.00,meteohub,2013-10-11 10:22:00,
2013-10-11 06:28:00,57.9,55.2,30.03,NNW,338,2.0,9.0,91,0.00,,,0.00,meteohub,2013-10-11 10:28:00,
2013-10-11 06:33:00,57.9,55.2,30.03,SW,225,6.0,9.0,91,0.00,,,0.00,meteohub,2013-10-11 10:33:00,
2013-10-11 06:38:00,57.9,55.2,30.03,WNW,293,4.0,8.0,91,0.00,,,0.00,meteohub,2013-10-11 10:38:00,
2013-10-11 06:43:00,57.9,55.2,30.03,NW,315,4.0,8.0,91,0.00,,,0.00,meteohub,2013-10-11 10:43:00,
2013-10-11 06:48:00,58.1,55.2,30.03,NW,315,3.0,8.0,90,0.00,,,0.00,meteohub,2013-10-11 10:48:00,
2013-10-11 06:53:00,58.1,55.2,30.03,West,270,8.0,8.0,90,0.00,,,0.00,meteohub,2013-10-11 10:53:00,
2013-10-11 06:58:00,58.1,55.2,30.03,SE,135,2.0,8.0,90,0.00,,,0.00,meteohub,2013-10-11 10:58:00,
2013-10-11 07:03:00,58.1,55.2,30.03,SW,225,3.0,8.0,90,0.00,,,0.00,meteohub,2013-10-11 11:03:00,
2013-10-11 07:08:00,58.3,55.4,30.03,NE,45,4.0,8.0,90,0.00,,,0.00,meteohub,2013-10-11 11:08:00,
2013-10-11 07:13:00,58.3,55.4,30.03,East,90,3.0,8.0,90,0.00,,,0.00,meteohub,2013-10-11 11:13:00,
2013-10-11 07:18:00,58.3,55.0,30.03,NE,45,3.0,8.0,89,0.00,,,0.00,meteohub,2013-10-11 11:18:00,
2013-10-11 07:23:00,58.3,55.0,30.03,South,180,5.0,6.0,89,0.00,,,0.00,meteohub,2013-10-11 11:23:00,
2013-10-11 07:28:00,58.5,55.2,30.03,East,90,4.0,6.0,89,0.00,,,0.00,meteohub,2013-10-11 11:28:00,
2013-10-11 07:33:00,58.5,55.2,30.03,NW,315,9.0,9.0,89,0.00,,,0.00,meteohub,2013-10-11 11:33:00,
2013-10-11 07:38:00,58.3,54.7,30.03,NE,45,4.0,9.0,88,0.00,,,0.00,meteohub,2013-10-11 11:38:00,
2013-10-11 07:43:00,58.3,55.0,30.03,East,90,8.0,10.0,89,0.00,,,0.00,meteohub,2013-10-11 11:43:00,
2013-10-11 07:48:00,58.1,54.9,30.03,SE,135,8.0,10.0,89,0.00,,,0.00,meteohub,2013-10-11 11:48:00,
2013-10-11 07:53:00,58.1,55.2,30.03,WNW,293,5.0,11.0,90,0.00,,,0.00,meteohub,2013-10-11 11:53:00,
2013-10-11 07:58:00,58.1,55.2,30.03,SW,225,5.0,11.0,90,0.00,,,0.00,meteohub,2013-10-11 11:58:00,
2013-10-11 08:03:00,58.1,55.2,30.04,South,180,7.0,9.0,90,0.00,,,0.00,meteohub,2013-10-11 12:03:00,
2013-10-11 08:08:00,58.1,55.2,30.04,SW,225,5.0,9.0,90,0.00,,,0.00,meteohub,2013-10-11 12:08:00,
2013-10-11 08:13:00,58.1,55.2,30.04,NW,315,3.0,9.0,90,0.00,,,0.00,meteohub,2013-10-11 12:13:00,
2013-10-11 08:18:00,58.1,55.2,30.04,North,0,3.0,7.0,90,0.00,,,0.00,meteohub,2013-10-11 12:18:00,
2013-10-11 08:23:00,58.3,55.4,30.04,South,180,4.0,8.0,90,0.00,,,0.00,meteohub,2013-10-11 12:23:00,
2013-10-11 08:28:00,58.5,55.2,30.04,South,180,7.0,9.0,89,0.00,,,0.00,meteohub,2013-10-11 12:28:00,
2013-10-11 08:33:00,58.6,55.4,30.04,NE,45,4.0,9.0,89,0.00,,,0.00,meteohub,2013-10-11 12:33:00,
2013-10-11 08:38:00,58.6,55.4,30.04,NNE,23,6.0,9.0,89,0.00,,,0.00,meteohub,2013-10-11 12:38:00,
2013-10-11 08:43:00,58.8,55.6,30.04,South,180,6.0,8.0,89,0.00,,,0.00,meteohub,2013-10-11 12:43:00,
2013-10-11 08:48:00,59.0,55.4,30.04,South,180,4.0,8.0,88,0.00,,,0.00,meteohub,2013-10-11 12:48:00,
2013-10-11 08:53:00,59.2,55.6,30.04,South,180,4.0,7.0,88,0.00,,,0.00,meteohub,2013-10-11 12:53:00,
2013-10-11 08:58:00,59.4,55.8,30.04,NW,315,4.0,6.0,88,0.00,,,0.00,meteohub,2013-10-11 12:58:00,
2013-10-11 09:03:00,59.5,55.6,30.04,North,0,5.0,7.0,87,0.00,,,0.00,meteohub,2013-10-11 13:03:00,
2013-10-11 09:08:00,59.5,55.6,30.04,SW,225,8.0,8.0,87,0.00,,,0.00,meteohub,2013-10-11 13:08:00,
2013-10-11 09:13:00,59.7,55.8,30.04,East,90,4.0,8.0,87,0.00,,,0.00,meteohub,2013-10-11 13:13:00,
2013-10-11 09:18:00,59.9,55.9,30.04,SE,135,7.0,9.0,87,0.00,,,0.00,meteohub,2013-10-11 13:18:00,
2013-10-11 09:23:00,60.1,55.9,30.04,South,180,5.0,9.0,86,0.00,,,0.00,meteohub,2013-10-11 13:23:00,
2013-10-11 09:29:00,60.3,56.1,30.04,WSW,248,6.0,9.0,86,0.00,,,0.00,meteohub,2013-10-11 13:29:00,
2013-10-11 09:34:00,60.4,56.3,30.04,SE,135,7.0,7.0,86,0.00,,,0.00,meteohub,2013-10-11 13:34:00,
2013-10-11 09:39:00,60.8,56.3,30.04,East,90,5.0,9.0,85,0.00,,,0.00,meteohub,2013-10-11 13:39:00,
2013-10-11 09:44:00,61.2,56.3,30.04,East,90,6.0,9.0,84,0.00,,,0.00,meteohub,2013-10-11 13:44:00,
2013-10-11 09:49:00,61.5,56.7,30.04,SE,135,4.0,9.0,84,0.00,,,0.00,meteohub,2013-10-11 13:49:00,
2013-10-11 09:54:00,61.9,57.0,30.24,NE,45,4.0,8.0,84,0.00,,,0.00,meteohub,2013-10-11 13:54:00,
2013-10-11 09:59:00,62.2,57.0,30.04,NW,315,10.0,10.0,83,0.00,,,0.00,meteohub,2013-10-11 13:59:00,
2013-10-11 10:04:00,62.2,57.0,30.05,North,0,10.0,10.0,83,0.00,,,0.00,meteohub,2013-10-11 14:04:00,
2013-10-11 10:09:00,62.8,57.2,30.04,SE,135,4.0,10.0,82,0.00,,,0.00,meteohub,2013-10-11 14:09:00,
2013-10-11 10:14:00,63.0,57.0,30.04,West,270,11.0,11.0,81,0.00,,,0.00,meteohub,2013-10-11 14:14:00,
2013-10-11 10:19:00,63.1,57.2,30.04,North,0,10.0,11.0,81,0.00,,,0.00,meteohub,2013-10-11 14:19:00,
2013-10-11 10:24:00,63.3,57.4,30.04,NW,315,9.0,11.0,81,0.00,,,0.00,meteohub,2013-10-11 14:24:00,
2013-10-11 10:29:00,63.5,57.6,30.04,South,180,5.0,11.0,81,0.00,,,0.00,meteohub,2013-10-11 14:29:00,
2013-10-11 10:34:00,63.7,57.4,30.05,NW,315,4.0,10.0,80,0.00,,,0.00,meteohub,2013-10-11 14:34:00,
2013-10-11 10:39:00,64.0,57.7,30.04,WNW,293,6.0,9.0,80,0.00,,,0.00,meteohub,2013-10-11 14:39:00,
2013-10-11 10:44:00,64.0,57.7,30.05,NE,45,4.0,9.0,80,0.00,,,0.00,meteohub,2013-10-11 14:44:00,
2013-10-11 10:49:00,64.2,57.6,30.04,North,0,4.0,9.0,79,0.00,,,0.00,meteohub,2013-10-11 14:49:00,
2013-10-11 10:54:00,64.8,58.1,30.04,SE,135,4.0,9.0,79,0.00,,,0.00,meteohub,2013-10-11 14:54:00,
2013-10-11 10:59:00,65.3,58.6,30.05,West,270,4.0,9.0,79,0.00,,,0.00,meteohub,2013-10-11 14:59:00,
2013-10-11 11:04:00,65.5,58.5,30.05,SSE,158,4.0,9.0,78,0.00,,,0.00,meteohub,2013-10-11 15:04:00,
2013-10-11 11:09:00,65.8,58.5,30.04,NW,315,4.0,8.0,77,0.00,,,0.00,meteohub,2013-10-11 15:09:00,
2013-10-11 11:14:00,65.8,58.5,30.04,NW,315,4.0,10.0,77,0.00,,,0.00,meteohub,2013-10-11 15:14:00,
2013-10-11 11:19:00,65.8,58.5,30.04,NNW,338,7.0,10.0,77,0.00,,,0.00,meteohub,2013-10-11 15:19:00,
2013-10-11 11:24:00,65.8,58.5,30.04,WNW,293,5.0,10.0,77,0.00,,,0.00,meteohub,2013-10-11 15:24:00,
2013-10-11 11:29:00,66.4,58.6,30.05,NNW,338,5.0,8.0,76,0.00,,,0.00,meteohub,2013-10-11 15:29:00,
2013-10-11 11:34:00,66.7,59.0,30.05,NW,315,8.0,9.0,76,0.00,,,0.00,meteohub,2013-10-11 15:34:00,
2013-10-11 11:39:00,67.1,59.4,30.04,NW,315,8.0,9.0,76,0.00,,,0.00,meteohub,2013-10-11 15:39:00,
2013-10-11 11:44:00,67.1,58.8,30.04,NW,315,3.0,9.0,75,0.00,,,0.00,meteohub,2013-10-11 15:44:00,
2013-10-11 11:49:00,67.6,59.7,30.04,SE,135,3.0,8.0,76,0.00,,,0.00,meteohub,2013-10-11 15:49:00,
2013-10-11 11:54:00,68.0,59.4,30.04,South,180,5.0,8.0,74,0.00,,,0.00,meteohub,2013-10-11 15:54:00,
2013-10-11 11:59:00,68.0,59.4,30.04,NW,315,4.0,8.0,74,0.00,,,0.00,meteohub,2013-10-11 15:59:00,
2013-10-11 12:04:00,68.2,59.5,30.04,NW,315,5.0,11.0,74,0.00,,,0.00,meteohub,2013-10-11 16:04:00,
2013-10-11 12:09:00,68.5,59.5,30.04,North,0,3.0,11.0,73,0.00,,,0.00,meteohub,2013-10-11 16:09:00,
2013-10-11 12:14:00,68.7,59.7,30.03,North,0,4.0,5.0,73,0.00,,,0.00,meteohub,2013-10-11 16:14:00,
2013-10-11 12:19:00,69.1,60.1,30.03,North,0,10.0,11.0,73,0.00,,,0.00,meteohub,2013-10-11 16:19:00,
2013-10-11 12:24:00,69.3,60.3,30.03,NW,315,6.0,11.0,73,0.00,,,0.00,meteohub,2013-10-11 16:24:00,
2013-10-11 12:29:00,69.6,60.6,30.03,North,0,10.0,11.0,73,0.00,,,0.00,meteohub,2013-10-11 16:29:00,
2013-10-11 12:34:00,70.2,60.6,30.03,NW,315,5.0,11.0,72,0.00,,,0.00,meteohub,2013-10-11 16:34:00,
2013-10-11 12:39:00,70.9,60.3,30.03,NW,315,8.0,11.0,69,0.00,,,0.00,meteohub,2013-10-11 16:39:00,
2013-10-11 12:44:00,71.1,60.8,30.03,North,0,3.0,10.0,70,0.00,,,0.00,meteohub,2013-10-11 16:44:00,
2013-10-11 12:49:00,71.2,60.1,30.02,NW,315,8.0,9.0,68,0.00,,,0.00,meteohub,2013-10-11 16:49:00,
2013-10-11 12:54:00,71.6,60.4,30.02,NW,315,4.0,11.0,68,0.00,,,0.00,meteohub,2013-10-11 16:54:00,
2013-10-11 12:59:00,72.1,60.6,30.02,East,90,8.0,11.0,67,0.00,,,0.00,meteohub,2013-10-11 16:59:00,
2013-10-11 13:04:00,71.1,59.5,30.02,NE,45,2.0,12.0,67,0.00,,,0.00,meteohub,2013-10-11 17:04:00,
2013-10-11 13:09:00,70.9,60.3,30.01,NW,315,5.0,12.0,69,0.00,,,0.00,meteohub,2013-10-11 17:09:00,
2013-10-11 13:14:00,71.1,61.2,30.01,SSW,203,2.0,12.0,71,0.00,,,0.00,meteohub,2013-10-11 17:14:00,
2013-10-11 13:20:00,72.1,61.0,30.01,SE,135,8.0,9.0,68,0.00,,,0.00,meteohub,2013-10-11 17:20:00,
2013-10-11 13:25:00,73.0,61.5,30.00,NW,315,11.0,11.0,67,0.00,,,0.00,meteohub,2013-10-11 17:25:00,
2013-10-11 13:30:00,73.6,61.5,30.00,NW,315,11.0,13.0,66,0.00,,,0.00,meteohub,2013-10-11 17:30:00,
2013-10-11 13:35:00,73.6,61.9,30.01,North,0,4.0,13.0,67,0.00,,,0.00,meteohub,2013-10-11 17:35:00,
2013-10-11 13:40:00,74.1,62.1,30.00,NW,315,6.0,11.0,66,0.00,,,0.00,meteohub,2013-10-11 17:40:00,
2013-10-11 13:45:00,73.8,61.7,30.00,NW,315,3.0,11.0,66,0.00,,,0.00,meteohub,2013-10-11 17:45:00,
2013-10-11 13:50:00,73.6,61.2,30.00,NNW,338,6.0,9.0,65,0.00,,,0.00,meteohub,2013-10-11 17:50:00,
2013-10-11 13:55:00,72.7,60.3,30.00,NNW,338,3.0,9.0,65,0.00,,,0.00,meteohub,2013-10-11 17:55:00,
2013-10-11 14:00:00,72.5,60.4,30.00,WNW,293,5.0,9.0,66,0.00,,,0.00,meteohub,2013-10-11 18:00:00,
2013-10-11 14:05:00,72.5,60.4,30.00,WNW,293,5.0,9.0,66,0.00,,,0.00,meteohub,2013-10-11 18:05:00,
2013-10-11 14:10:00,73.4,61.3,30.00,NW,315,3.0,9.0,66,0.00,,,0.00,meteohub,2013-10-11 18:10:00,
2013-10-11 14:15:00,74.3,62.6,29.99,NW,315,5.0,9.0,67,0.00,,,0.00,meteohub,2013-10-11 18:15:00,
2013-10-11 14:20:00,74.7,62.6,29.99,North,0,8.0,8.0,66,0.00,,,0.00,meteohub,2013-10-11 18:20:00,
2013-10-11 14:25:00,74.5,61.9,29.99,North,0,4.0,5.0,65,0.00,,,0.00,meteohub,2013-10-11 18:25:00,
2013-10-11 14:30:00,74.1,62.1,29.99,NW,315,8.0,8.0,66,0.00,,,0.00,meteohub,2013-10-11 18:30:00,
2013-10-11 14:35:00,73.9,61.9,29.99,South,180,4.0,8.0,66,0.00,,,0.00,meteohub,2013-10-11 18:35:00,
2013-10-11 14:40:00,74.3,62.6,29.98,NW,315,4.0,8.0,67,0.00,,,0.00,meteohub,2013-10-11 18:40:00,
2013-10-11 14:45:00,74.1,62.1,29.99,NW,315,2.0,8.0,66,0.00,,,0.00,meteohub,2013-10-11 18:45:00,
2013-10-11 14:50:00,74.1,62.1,29.99,North,0,4.0,8.0,66,0.00,,,0.00,meteohub,2013-10-11 18:50:00,
2013-10-11 14:55:00,73.9,61.9,29.99,South,180,4.0,8.0,66,0.00,,,0.00,meteohub,2013-10-11 18:55:00,
2013-10-11 15:00:00,73.8,61.7,29.99,NW,315,5.0,6.0,66,0.00,,,0.00,meteohub,2013-10-11 19:00:00,
2013-10-11 15:05:00,73.2,60.8,29.99,NW,315,7.0,10.0,65,0.00,,,0.00,meteohub,2013-10-11 19:05:00,
2013-10-11 15:10:00,73.0,61.0,29.99,NW,315,5.0,10.0,66,0.00,,,0.00,meteohub,2013-10-11 19:10:00,
2013-10-11 15:15:00,72.7,60.6,29.99,NW,315,7.0,10.0,66,0.00,,,0.00,meteohub,2013-10-11 19:15:00,
2013-10-11 15:20:00,72.3,60.8,29.99,West,270,7.0,7.0,67,0.00,,,0.00,meteohub,2013-10-11 19:20:00,
2013-10-11 15:25:00,72.1,61.0,29.99,North,0,2.0,7.0,68,0.00,,,0.00,meteohub,2013-10-11 19:25:00,
2013-10-11 15:30:00,72.1,61.0,29.99,NW,315,6.0,7.0,68,0.00,,,0.00,meteohub,2013-10-11 19:30:00,
2013-10-11 15:35:00,72.0,60.8,29.99,North,0,4.0,7.0,68,0.00,,,0.00,meteohub,2013-10-11 19:35:00,
2013-10-11 15:40:00,72.0,60.8,29.99,SE,135,4.0,6.0,68,0.00,,,0.00,meteohub,2013-10-11 19:40:00,
2013-10-11 15:45:00,71.8,60.6,29.99,NW,315,6.0,6.0,68,0.00,,,0.00,meteohub,2013-10-11 19:45:00,
2013-10-11 15:50:00,71.8,61.0,29.99,North,0,4.0,6.0,69,0.00,,,0.00,meteohub,2013-10-11 19:50:00,
2013-10-11 15:55:00,71.6,60.8,29.99,NW,315,2.0,6.0,69,0.00,,,0.00,meteohub,2013-10-11 19:55:00,
2013-10-11 16:00:00,71.6,61.3,29.99,SSE,158,3.0,6.0,70,0.00,,,0.00,meteohub,2013-10-11 20:00:00,
2013-10-11 16:05:00,71.6,61.3,29.99,SSE,158,3.0,4.0,70,0.00,,,0.00,meteohub,2013-10-11 20:05:00,
2013-10-11 16:10:00,71.4,61.5,30.00,SW,225,4.0,4.0,71,0.00,,,0.00,meteohub,2013-10-11 20:10:00,
2013-10-11 16:15:00,71.1,61.5,29.99,SW,225,4.0,4.0,72,0.00,,,0.00,meteohub,2013-10-11 20:15:00,
2013-10-11 16:20:00,70.7,61.2,30.00,NE,45,3.0,7.0,72,0.00,,,0.00,meteohub,2013-10-11 20:20:00,
2013-10-11 16:25:00,70.3,61.3,30.00,NW,315,4.0,7.0,73,0.00,,,0.00,meteohub,2013-10-11 20:25:00,
2013-10-11 16:30:00,70.0,61.3,30.00,NNW,338,5.0,7.0,74,0.00,,,0.00,meteohub,2013-10-11 20:30:00,
2013-10-11 16:35:00,69.6,61.7,29.99,SW,225,3.0,5.0,76,0.00,,,0.00,meteohub,2013-10-11 20:35:00,
2013-10-11 16:40:00,69.4,61.5,29.99,NE,45,3.0,5.0,76,0.00,,,0.00,meteohub,2013-10-11 20:40:00,
2013-10-11 16:45:00,69.4,61.9,30.00,West,270,1.0,5.0,77,0.00,,,0.00,meteohub,2013-10-11 20:45:00,
2013-10-11 16:50:00,69.4,61.9,30.00,East,90,1.0,4.0,77,0.00,,,0.00,meteohub,2013-10-11 20:50:00,
2013-10-11 16:55:00,69.4,61.9,30.00,West,270,2.0,4.0,77,0.00,,,0.00,meteohub,2013-10-11 20:55:00,
2013-10-11 17:00:00,69.3,61.7,30.00,SE,135,2.0,4.0,77,0.00,,,0.00,meteohub,2013-10-11 21:00:00,
2013-10-11 17:05:00,69.1,61.5,30.00,NW,315,12.0,12.0,77,0.00,,,0.00,meteohub,2013-10-11 21:05:00,
2013-10-11 17:10:00,68.9,61.7,30.00,East,90,1.0,12.0,78,0.00,,,0.00,meteohub,2013-10-11 21:10:00,
2013-10-11 17:15:00,68.7,61.9,30.01,South,180,2.0,12.0,79,0.00,,,0.00,meteohub,2013-10-11 21:15:00,
2013-10-11 17:20:00,68.7,61.9,30.00,North,0,2.0,12.0,79,0.00,,,0.00,meteohub,2013-10-11 21:20:00,
2013-10-11 17:25:00,68.5,62.4,30.00,South,180,3.0,5.0,81,0.00,,,0.00,meteohub,2013-10-11 21:25:00,
2013-10-11 17:30:00,68.5,62.8,30.01,SE,135,4.0,5.0,82,0.00,,,0.00,meteohub,2013-10-11 21:30:00,
2013-10-11 17:35:00,68.5,62.8,30.01,NW,315,4.0,5.0,82,0.00,,,0.00,meteohub,2013-10-11 21:35:00,
2013-10-11 17:40:00,68.4,62.6,30.00,SSW,203,4.0,4.0,82,0.00,,,0.00,meteohub,2013-10-11 21:40:00,
2013-10-11 17:45:00,68.2,62.8,30.00,South,180,4.0,5.0,83,0.00,,,0.00,meteohub,2013-10-11 21:45:00,
2013-10-11 17:50:00,68.0,62.6,30.01,South,180,3.0,5.0,83,0.00,,,0.00,meteohub,2013-10-11 21:50:00,
2013-10-11 17:55:00,67.8,62.8,30.01,West,270,2.0,5.0,84,0.00,,,0.00,meteohub,2013-10-11 21:55:00,
2013-10-11 18:00:00,67.6,62.6,30.01,South,180,3.0,4.0,84,0.00,,,0.00,meteohub,2013-10-11 22:00:00,
2013-10-11 18:05:00,67.6,62.6,30.01,South,180,3.0,4.0,84,0.00,,,0.00,meteohub,2013-10-11 22:05:00,
2013-10-11 18:10:00,67.6,62.6,30.01,South,180,2.0,4.0,84,0.00,,,0.00,meteohub,2013-10-11 22:10:00,
2013-10-11 18:15:00,67.5,62.4,30.01,West,270,2.0,4.0,84,0.00,,,0.00,meteohub,2013-10-11 22:15:00,
2013-10-11 18:20:00,67.5,62.4,30.01,East,90,2.0,4.0,84,0.00,,,0.00,meteohub,2013-10-11 22:20:00,
2013-10-11 18:25:00,67.3,62.2,30.01,North,0,2.0,4.0,84,0.00,,,0.00,meteohub,2013-10-11 22:25:00,
2013-10-11 18:30:00,67.1,62.1,30.02,SE,135,2.0,4.0,84,0.00,,,0.00,meteohub,2013-10-11 22:30:00,
2013-10-11 18:35:00,67.1,62.4,30.02,East,90,1.0,4.0,85,0.00,,,0.00,meteohub,2013-10-11 22:35:00,
2013-10-11 18:40:00,66.9,62.2,30.02,NW,315,4.0,4.0,85,0.00,,,0.00,meteohub,2013-10-11 22:40:00,
2013-10-11 18:45:00,66.9,61.9,30.02,NW,315,8.0,8.0,84,0.00,,,0.00,meteohub,2013-10-11 22:45:00,
2013-10-11 18:50:00,66.7,61.3,30.02,NW,315,5.0,8.0,83,0.00,,,0.00,meteohub,2013-10-11 22:50:00,
2013-10-11 18:56:00,66.7,61.0,30.03,NW,315,4.0,8.0,82,0.00,,,0.00,meteohub,2013-10-11 22:56:00,
2013-10-11 19:01:00,66.6,60.6,30.02,SW,225,4.0,8.0,81,0.00,,,0.00,meteohub,2013-10-11 23:01:00,
2013-10-11 19:06:00,66.6,59.9,30.03,SE,135,4.0,7.0,79,0.00,,,0.00,meteohub,2013-10-11 23:06:00,
2013-10-11 19:11:00,66.4,59.7,30.03,SW,225,5.0,7.0,79,0.00,,,0.00,meteohub,2013-10-11 23:11:00,
2013-10-11 19:16:00,66.4,59.4,30.03,North,0,4.0,7.0,78,0.00,,,0.00,meteohub,2013-10-11 23:16:00,
2013-10-11 19:21:00,66.4,59.4,30.02,NW,315,5.0,7.0,78,0.00,,,0.00,meteohub,2013-10-11 23:21:00,
2013-10-11 19:26:00,66.2,59.2,30.03,East,90,2.0,7.0,78,0.00,,,0.00,meteohub,2013-10-11 23:26:00,
2013-10-11 19:31:00,66.2,58.8,30.03,NW,315,11.0,11.0,77,0.00,,,0.00,meteohub,2013-10-11 23:31:00,
2013-10-11 19:36:00,66.2,58.8,30.03,South,180,4.0,11.0,77,0.00,,,0.00,meteohub,2013-10-11 23:36:00,
2013-10-11 19:41:00,66.2,58.8,30.03,SE,135,6.0,11.0,77,0.00,,,0.00,meteohub,2013-10-11 23:41:00,
2013-10-11 19:46:00,66.2,58.8,30.03,South,180,7.0,11.0,77,0.00,,,0.00,meteohub,2013-10-11 23:46:00,
2013-10-11 19:51:00,66.2,58.8,30.03,North,0,8.0,8.0,77,0.00,,,0.00,meteohub,2013-10-11 23:51:00,
2013-10-11 19:56:00,66.0,59.0,30.03,East,90,4.0,10.0,78,0.00,,,0.00,meteohub,2013-10-11 23:56:00,
2013-10-11 20:01:00,66.0,59.0,30.03,West,270,8.0,10.0,78,0.00,,,0.00,meteohub,2013-10-12 00:01:00,
2013-10-11 20:06:00,66.0,59.0,30.03,SW,225,5.0,11.0,78,0.00,,,0.00,meteohub,2013-10-12 00:06:00,
2013-10-11 20:11:00,65.8,58.8,30.03,NW,315,5.0,11.0,78,0.00,,,0.00,meteohub,2013-10-12 00:11:00,
2013-10-11 20:16:00,65.8,59.2,30.03,SE,135,3.0,8.0,79,0.00,,,0.00,meteohub,2013-10-12 00:16:00,
2013-10-11 20:21:00,65.7,59.0,30.03,East,90,2.0,7.0,79,0.00,,,0.00,meteohub,2013-10-12 00:21:00,
2013-10-11 20:26:00,65.5,59.2,30.03,North,0,3.0,7.0,80,0.00,,,0.00,meteohub,2013-10-12 00:26:00,
2013-10-11 20:31:00,65.3,59.4,30.03,NW,315,2.0,4.0,81,0.00,,,0.00,meteohub,2013-10-12 00:31:00,
2013-10-11 20:36:00,65.1,59.2,30.04,South,180,4.0,4.0,81,0.00,,,0.00,meteohub,2013-10-12 00:36:00,
2013-10-11 20:41:00,64.9,59.0,30.04,WNW,293,3.0,4.0,81,0.00,,,0.00,meteohub,2013-10-12 00:41:00,
2013-10-11 20:46:00,64.9,59.0,30.03,NW,315,3.0,4.0,81,0.00,,,0.00,meteohub,2013-10-12 00:46:00,
2013-10-11 20:51:00,64.8,59.2,30.03,North,0,2.0,4.0,82,0.00,,,0.00,meteohub,2013-10-12 00:51:00,
2013-10-11 20:56:00,64.8,59.2,30.04,NW,315,2.0,4.0,82,0.00,,,0.00,meteohub,2013-10-12 00:56:00,
2013-10-11 21:01:00,64.8,59.2,30.04,NE,45,2.0,4.0,82,0.00,,,0.00,meteohub,2013-10-12 01:01:00,
2013-10-11 21:06:00,64.6,59.0,30.04,NW,315,2.0,3.0,82,0.00,,,0.00,meteohub,2013-10-12 01:06:00,
2013-10-11 21:11:00,64.4,58.8,30.04,NW,315,2.0,3.0,82,0.00,,,0.00,meteohub,2013-10-12 01:11:00,
2013-10-11 21:16:00,64.4,58.8,30.04,West,270,5.0,5.0,82,0.00,,,0.00,meteohub,2013-10-12 01:16:00,
2013-10-11 21:21:00,64.2,58.6,30.04,West,270,2.0,5.0,82,0.00,,,0.00,meteohub,2013-10-12 01:21:00,
2013-10-11 21:26:00,64.2,58.6,30.04,NW,315,2.0,5.0,82,0.00,,,0.00,meteohub,2013-10-12 01:26:00,
2013-10-11 21:31:00,64.2,59.0,30.04,West,270,2.0,5.0,83,0.00,,,0.00,meteohub,2013-10-12 01:31:00,
2013-10-11 21:36:00,64.2,59.0,30.04,NW,315,3.0,4.0,83,0.00,,,0.00,meteohub,2013-10-12 01:36:00,
2013-10-11 21:41:00,64.2,59.0,30.04,NW,315,2.0,4.0,83,0.00,,,0.00,meteohub,2013-10-12 01:41:00,
2013-10-11 21:46:00,64.0,58.8,30.05,NW,315,4.0,4.0,83,0.00,,,0.00,meteohub,2013-10-12 01:46:00,
2013-10-11 21:51:00,64.0,58.8,30.05,NW,315,4.0,4.0,83,0.00,,,0.00,meteohub,2013-10-12 01:51:00,
2013-10-11 21:56:00,63.9,59.0,30.05,North,0,4.0,7.0,84,0.00,,,0.00,meteohub,2013-10-12 01:56:00,
2013-10-11 22:01:00,63.7,58.8,30.05,NW,315,5.0,7.0,84,0.00,,,0.00,meteohub,2013-10-12 02:01:00,
2013-10-11 22:06:00,63.5,58.6,30.05,NW,315,3.0,7.0,84,0.00,,,0.00,meteohub,2013-10-12 02:06:00,
2013-10-11 22:11:00,63.3,58.5,30.05,NW,315,3.0,5.0,84,0.00,,,0.00,meteohub,2013-10-12 02:11:00,
2013-10-11 22:16:00,63.1,58.6,30.05,West,270,3.0,5.0,85,0.00,,,0.00,meteohub,2013-10-12 02:16:00,
2013-10-11 22:21:00,63.1,58.6,30.05,West,270,3.0,4.0,85,0.00,,,0.00,meteohub,2013-10-12 02:21:00,
2013-10-11 22:26:00,63.0,58.5,30.05,NW,315,2.0,4.0,85,0.00,,,0.00,meteohub,2013-10-12 02:26:00,
2013-10-11 22:31:00,62.8,58.3,30.05,NNW,338,4.0,4.0,85,0.00,,,0.00,meteohub,2013-10-12 02:31:00,
2013-10-11 22:36:00,62.6,58.1,30.06,NW,315,3.0,4.0,85,0.00,,,0.00,meteohub,2013-10-12 02:36:00,
2013-10-11 22:41:00,62.6,58.1,30.06,NW,315,3.0,4.0,85,0.00,,,0.00,meteohub,2013-10-12 02:41:00,
2013-10-11 22:46:00,62.4,58.5,30.05,NW,315,2.0,4.0,87,0.00,,,0.00,meteohub,2013-10-12 02:46:00,
2013-10-11 22:51:00,62.2,58.3,30.05,NW,315,3.0,4.0,87,0.00,,,0.00,meteohub,2013-10-12 02:51:00,
2013-10-11 22:56:00,62.2,58.3,30.06,NW,315,3.0,4.0,87,0.00,,,0.00,meteohub,2013-10-12 02:56:00,
2013-10-11 23:01:00,62.1,58.1,30.05,NW,315,4.0,4.0,87,0.00,,,0.00,meteohub,2013-10-12 03:01:00,
2013-10-11 23:07:00,62.1,58.1,30.06,North,0,2.0,5.0,87,0.00,,,0.00,meteohub,2013-10-12 03:07:00,
2013-10-11 23:12:00,62.1,58.1,30.06,NW,315,4.0,5.0,87,0.00,,,0.00,meteohub,2013-10-12 03:12:00,
2013-10-11 23:17:00,62.1,58.1,30.06,North,0,7.0,7.0,87,0.00,,,0.00,meteohub,2013-10-12 03:17:00,
2013-10-11 23:22:00,62.1,58.1,30.06,NW,315,3.0,8.0,87,0.00,,,0.00,meteohub,2013-10-12 03:22:00,
2013-10-11 23:27:00,62.1,58.1,30.06,NW,315,4.0,8.0,87,0.00,,,0.00,meteohub,2013-10-12 03:27:00,
2013-10-11 23:32:00,62.1,58.1,30.06,NW,315,2.0,8.0,87,0.00,,,0.00,meteohub,2013-10-12 03:32:00,
2013-10-11 23:37:00,62.1,58.1,30.06,NW,315,3.0,5.0,87,0.00,,,0.00,meteohub,2013-10-12 03:37:00,
2013-10-11 23:42:00,61.9,57.9,30.06,NW,315,6.0,6.0,87,0.00,,,0.00,meteohub,2013-10-12 03:42:00,
2013-10-11 23:47:00,61.9,57.9,30.06,NW,315,4.0,6.0,87,0.00,,,0.00,meteohub,2013-10-12 03:47:00,
2013-10-11 23:52:00,61.9,57.9,30.06,NW,315,2.0,6.0,87,0.00,,,0.00,meteohub,2013-10-12 03:52:00,
2013-10-11 23:57:00,61.9,57.9,30.06,North,0,2.0,6.0,87,0.00,,,0.00,meteohub,2013-10-12 03:57:00,